Content
SEND FEEDBACK

Daily
Averages
Monthly
Summary
United States of America

NORTH CHARLESTON, SOUTH CAROLINA


Home > North America > United States > South Carolina
Elevation: 0 meters     Latitude: 32 54N     Longitude: 080 02W

WEATHER
 
SELECT A DAY
Number of Records: 203,814;   Date Range: 1/1/95 - 7/26/14
 
SHARE

PRINT THIS DATA

[ ← Previous Day ]
WEATHER ALMANAC - 31 JANUARY, 2013
[ Next Day → ]
[ °F ]   °C
Weather ElementAverageHighLow
Temperature9.9 °C13.3 °C (1:56 pm)5.6 °C (11:56 pm)
Dewpoint-0.5 °C11.1 °C (12:56 am)-7.2 °C (5:56 pm)
Humidity52.5 %94 % (1:21 am)25 % (3:56 pm)
Barometer1015.2 hPa1022.7 hPa (11:56 pm)1007.5 hPa (1:21 am)
Wind Speed20.6 km/h27.8 km/h (5:56 am)
Wind Gust59.2 km/h (5:56 am)
Weather ElementAverage
Visibility15.4 km
Wind DirectionW (264.6 °)

Weather ElementTotal
Precipitation3.3 mm
Heating Degree Days8.9 (Base 18.3)
Averaged from 26 records on 31 January, 2013
WEATHER CONDITIONS BREAKOUT
WIND DIRECTION BREAKOUT
WEATHER BY HOUR - 31 JANUARY, 2013
[ °F ]   °C
Local TimeTemperatureDewpointHumidityBarometerVisibilityWind DirectionWind SpeedGust SpeedPrecipitationEventsConditions
12:56 AM12.8 °C11.1 °C89 %1007.8 hPa11.3 kmWSW (250°)25.9 km/h40.7 km/h0.25 mmRainLight Rain
1:21 AM12 °C11 °C94 %1007.5 hPa11.3 kmSW (230°)16.7 km/h0.76 mmRainLight Rain
1:32 AM12 °C11 °C94 %1007.8 hPa8 kmWSW (240°)24.1 km/h35.2 km/h1.02 mmRainRain
1:56 AM11.7 °C10 °C89 %1008.5 hPa16.1 kmWSW (240°)22.2 km/h31.5 km/h1.27 mmOvercast
2:56 AM11.7 °C8.9 °C83 %1009.1 hPa16.1 kmWSW (250°)20.4 km/h35.2 km/hOvercast
3:56 AM11.1 °C8.3 °C83 %1009.8 hPa16.1 kmWest (260°)25.9 km/h38.9 km/hScattered Clouds
4:56 AM10.6 °C5.6 °C71 %1010.5 hPa16.1 kmWest (260°)24.1 km/h37 km/hScattered Clouds
5:56 AM8.9 °C0.6 °C56 %1012.2 hPa16.1 kmWest (280°)27.8 km/h59.2 km/hPartly Cloudy
6:56 AM7.8 °C-1.1 °C54 %1013.5 hPa16.1 kmWest (270°)20.4 km/h33.3 km/hClear
7:56 AM7.8 °C-0.6 °C56 %1014.6 hPa16.1 kmWest (280°)18.5 km/h38.9 km/hPartly Cloudy
8:56 AM8.3 °C-0.6 °C54 %1016.3 hPa16.1 kmWNW (290°)27.8 km/h40.7 km/hPartly Cloudy
9:56 AM8.3 °C-3.9 °C42 %1016.3 hPa16.1 kmWNW (290°)25.9 km/h38.9 km/hPartly Cloudy
10:56 AM10 °C-4.4 °C36 %1017.3 hPa16.1 kmWest (280°)14.8 km/h44.4 km/hClear
11:56 AM10.6 °C-5 °C33 %1016.9 hPa16.1 kmWest (280°)20.4 km/h37 km/hClear
12:56 PM12.2 °C-5 °C30 %1016.3 hPa16.1 kmWNW (290°)25.9 km/h40.7 km/hClear
1:56 PM13.3 °C-5.6 °C27 %1016.3 hPa16.1 kmWest (280°)25.9 km/h37 km/hClear
2:56 PM12.8 °C-6.1 °C27 %1016.6 hPa16.1 kmWest (270°)22.2 km/h38.9 km/hClear
3:56 PM12.8 °C-6.7 °C25 %1016.9 hPa16.1 kmWest (280°)27.8 km/h50.1 km/hClear
4:56 PM12.8 °C-6.1 °C27 %1017.9 hPa16.1 kmWest (260°)25.9 km/h35.2 km/hClear
5:56 PM11.1 °C-7.2 °C27 %1018.6 hPa16.1 kmWest (270°)20.4 km/hClear
6:56 PM8.9 °C-6.1 °C34 %1019.6 hPa16.1 kmWest (260°)11.1 km/hPartly Cloudy
7:56 PM7.2 °C-4.4 °C44 %1020 hPa16.1 kmWSW (240°)9.3 km/hPartly Cloudy
8:56 PM6.7 °C-4.4 °C45 %1020.7 hPa16.1 kmWSW (250°)13 km/hClear
9:56 PM6.1 °C-3.9 °C49 %1021.7 hPa16.1 kmWest (260°)13 km/hScattered Clouds
10:56 PM6.1 °C-4.4 °C47 %1022.4 hPa16.1 kmWest (260°)13 km/hScattered Clouds
11:56 PM5.6 °C-4.4 °C49 %1022.7 hPa16.1 kmWest (260°)11.1 km/hScattered Clouds
Hourly data recorded from KCHS, located 0 kilometers away from North Charleston, South Carolina







STORIES FROM OUR PARTNERS